Home > Weather > Eugene > Past weeks

Flag for U.S.A. Weather for the Past 2 Weeks in Eugene, Oregon, U.S.A.

Now
47 °F

Overcast.


Feels Like: 45 °F
Forecast: 43 / 61 °F
Wind: 5 mph from Southwest

Location: Mahlon Sweet Field

Current Time: Feb 6, 2016 at 8:55:52 PM

Latest Report: Feb 6, 2016 at 7:54 PM


Visibility: 10 mi

Pressure: 30.44 "Hg

Humidity: 90%

Dew point: 44 °F

Location of EugeneLocation

Historic Weather in Eugene — Graph

°F

Eugene Temperature Yesterday

Maximum temperature yesterday: 58 °F (at 1:54 PM)
Minimum temperature yesterday: 38 °F (at 5:54 AM)
Average temperature yesterday: 48 °F

High & Low Weather Summary for the Past Weeks

 TemperatureHumidityPressure
High65 °F (Jan 27, 1:54 PM)100% (Feb 6, 1:54 AM)30.48 "Hg (Feb 6, 1:54 AM)
Low31 °F (Jan 31, 7:54 AM)44% (Feb 5, 2:54 PM)29.67 "Hg (Jan 23, 1:54 AM)
Average46 °F82%30.16 "Hg
* Reported Jan 22 6:54 PM — Feb 6 6:54 PM, Eugene, Weather by CustomWeather, © 2016

Note: Actual official high and low records may vary slightly from our data, if they occured in-between our weather recording intervals... More about our weather records

Advertising

Eugene Weather History for the Previous 24 Hours

 ConditionsComfort  
Time TempWeatherWind HumidityBarometerVisibility
6:54 PM
Sat, Feb 6
48 °FMostly cloudy.3 mph89%30.45 "Hg8 mi
5:54 PM48 °FFog.3 mph89%30.42 "Hg3 mi
4:54 PM49 °FOvercast.6 mph84%30.43 "Hg9 mi
3:54 PM50 °FOvercast.5 mph80%30.42 "Hg10 mi
2:54 PM50 °FOvercast.6 mph80%30.42 "Hg10 mi
1:54 PM49 °FMostly cloudy.5 mph86%30.42 "Hg10 mi
12:54 PM48 °FMostly cloudy.7 mph86%30.45 "Hg9 mi
11:54 AM48 °FMostly cloudy.5 mph86%30.45 "Hg10 mi
10:54 AM46 °FMostly cloudy.3 mph86%30.48 "Hg10 mi
9:54 AM44 °FMostly cloudy.5 mph89%30.47 "Hg10 mi
8:54 AM42 °FFog.6 mph96%30.47 "Hg1 mi
7:54 AM41 °FFog.3 mph96%30.47 "Hg1 mi
6:54 AM41 °FOvercast.8 mph93%30.47 "Hg9 mi
5:54 AM41 °FFog.5 mph96%30.45 "Hg6 mi
4:54 AM42 °FLow clouds.3 mph92%30.44 "Hg10 mi
4:04 AM41 °FFog.3 mph96%30.43 "Hg1 mi
3:54 AM40 °FFog.5 mph97%30.43 "Hg0 mi
2:54 AM43 °FFog.No wind93%30.43 "Hg1 mi
1:54 AM43 °FQuite cool.5 mph100%30.43 "Hg10 mi
10:54 PM
Fri, Feb 5
46 °FOvercast.No wind89%30.41 "Hg10 mi
9:54 PM48 °FOvercast.6 mph89%30.38 "Hg10 mi
8:54 PM50 °FLight rain. Mostly cloudy.6 mph86%30.37 "Hg10 mi
Weather by CustomWeather, © 2016

See weather overviewHow to use our weather pages